Time,TemperatureF,DewpointF,PressureIn,WindDirection,WindDirectionDegrees,WindSpeedMPH,WindSpeedGustMPH,Humidity,HourlyPrecipIn,Conditions,Clouds,dailyrainin,SoftwareType,DateUTC
2013-01-17 04:27:00,30.8,29.3,29.80,NE,45,1.8,2.9,93,-99.99,,,-99.99,WSDL version 420,2013-01-17 09:27:00,
2013-01-17 04:28:00,30.9,29.4,29.80,NE,45,0.0,2.9,93,0.00,,,0.00,WSDL version 420,2013-01-17 09:28:00,
2013-01-17 04:30:00,30.8,29.3,29.80,NE,45,0.0,2.9,93,0.00,,,0.00,WSDL version 420,2013-01-17 09:30:00,
2013-01-17 04:36:00,30.4,28.6,29.80,NE,45,1.4,2.5,92,0.00,,,0.00,WSDL version 420,2013-01-17 09:36:00,
2013-01-17 04:42:00,30.4,28.6,29.80,NE,45,0.7,2.9,92,0.00,,,0.00,WSDL version 420,2013-01-17 09:42:00,
2013-01-17 04:48:00,30.3,28.7,29.80,NE,45,0.0,2.2,93,0.00,,,0.00,WSDL version 420,2013-01-17 09:48:00,
2013-01-17 04:56:00,30.1,28.5,29.80,NE,45,1.7,2.5,92,0.00,,,0.00,WSDL version 420,2013-01-17 09:56:00,
2013-01-17 05:02:00,30.3,28.5,29.80,NE,45,1.6,2.7,92,0.00,,,0.00,WSDL version 420,2013-01-17 10:02:00,
2013-01-17 05:08:00,30.1,28.4,29.83,NE,45,0.0,2.9,92,0.00,,,0.00,WSDL version 420,2013-01-17 10:08:00,
2013-01-17 05:14:00,30.2,28.4,29.83,NE,45,1.3,2.7,92,0.00,,,0.00,WSDL version 420,2013-01-17 10:14:00,
2013-01-17 05:20:00,30.1,28.3,29.83,NE,45,1.2,2.2,92,0.00,,,0.00,WSDL version 420,2013-01-17 10:20:00,
2013-01-17 05:26:00,30.2,28.4,29.83,NE,45,0.4,2.2,92,0.00,,,0.00,WSDL version 420,2013-01-17 10:26:00,
2013-01-17 05:32:00,30.3,28.5,29.83,NE,45,0.4,2.2,92,0.00,,,0.00,WSDL version 420,2013-01-17 10:32:00,
2013-01-17 05:38:00,30.0,28.3,29.83,NE,45,0.9,2.2,92,0.00,,,0.00,WSDL version 420,2013-01-17 10:38:00,
2013-01-17 05:44:00,29.8,28.0,29.83,NE,45,1.0,3.1,92,0.00,,,0.00,WSDL version 420,2013-01-17 10:44:00,
2013-01-17 05:50:00,30.0,28.3,29.83,NE,45,0.0,3.1,92,0.00,,,0.00,WSDL version 420,2013-01-17 10:50:00,
2013-01-17 05:56:00,29.7,28.0,29.83,NE,45,0.0,0.9,92,0.00,,,0.00,WSDL version 420,2013-01-17 10:56:00,
2013-01-17 06:02:00,30.0,28.3,29.83,NE,45,1.6,2.7,92,0.00,,,0.00,WSDL version 420,2013-01-17 11:02:00,
2013-01-17 06:08:00,29.9,28.2,29.83,NE,45,2.2,3.6,92,0.00,,,0.00,WSDL version 420,2013-01-17 11:08:00,
2013-01-17 06:15:00,30.3,28.4,29.83,NE,45,0.7,4.9,91,0.00,,,0.00,WSDL version 420,2013-01-17 11:15:00,
2013-01-17 06:21:00,30.3,28.4,29.83,NE,45,1.6,2.9,91,0.00,,,0.00,WSDL version 420,2013-01-17 11:21:00,
2013-01-17 06:27:00,30.6,28.5,29.85,NE,45,1.1,3.8,91,0.00,,,0.00,WSDL version 420,2013-01-17 11:27:00,
2013-01-17 06:33:00,31.0,29.0,29.85,NE,45,4.0,4.0,91,0.00,,,0.00,WSDL version 420,2013-01-17 11:33:00,
2013-01-17 06:39:00,31.2,29.2,29.85,NE,45,1.7,4.7,91,0.00,,,0.00,WSDL version 420,2013-01-17 11:39:00,
2013-01-17 06:45:00,31.6,29.4,29.85,NE,45,0.8,4.7,90,0.00,,,0.00,WSDL version 420,2013-01-17 11:45:00,
2013-01-17 06:51:00,31.9,29.4,29.85,NE,45,3.6,5.4,89,0.00,,,0.00,WSDL version 420,2013-01-17 11:51:00,
2013-01-17 06:57:00,31.9,29.3,29.85,NE,45,2.1,7.4,89,0.00,,,0.00,WSDL version 420,2013-01-17 11:57:00,
2013-01-17 07:03:00,32.2,29.1,29.85,NE,45,3.1,7.2,89,0.00,,,0.00,WSDL version 420,2013-01-17 12:03:00,
2013-01-17 07:09:00,32.2,29.0,29.85,NE,45,2.7,7.2,88,0.00,,,0.00,WSDL version 420,2013-01-17 12:09:00,
2013-01-17 07:15:00,31.8,28.9,29.85,NE,45,0.9,3.8,88,0.00,,,0.00,WSDL version 420,2013-01-17 12:15:00,
2013-01-17 07:21:00,31.5,28.8,29.85,NE,45,0.8,3.4,89,0.00,,,0.00,WSDL version 420,2013-01-17 12:21:00,
2013-01-17 07:27:00,31.2,28.6,29.88,NE,45,0.0,2.7,89,0.00,,,0.00,WSDL version 420,2013-01-17 12:27:00,
2013-01-17 07:33:00,31.3,28.8,29.88,NE,45,2.6,5.6,89,0.00,,,0.00,WSDL version 420,2013-01-17 12:33:00,
2013-01-17 07:39:00,31.6,29.0,29.88,NE,45,0.6,5.6,89,0.00,,,0.00,WSDL version 420,2013-01-17 12:39:00,
2013-01-17 07:45:00,31.6,28.8,29.88,NE,45,4.0,4.0,88,0.00,,,0.00,WSDL version 420,2013-01-17 12:45:00,
2013-01-17 07:51:00,31.4,28.7,29.88,NE,45,4.0,4.0,89,0.00,,,0.00,WSDL version 420,2013-01-17 12:51:00,
2013-01-17 07:57:00,31.6,28.8,29.88,North,-999,-999.0,-999.0,88,0.00,,,0.00,WSDL version 420,2013-01-17 12:57:00,
2013-01-17 08:04:00,31.7,29.1,29.88,North,-999,-999.0,-999.0,89,0.00,,,0.00,WSDL version 420,2013-01-17 13:04:00,
2013-01-17 08:10:00,32.1,29.1,29.88,North,-999,-999.0,-999.0,88,0.00,,,0.00,WSDL version 420,2013-01-17 13:10:00,
2013-01-17 08:16:00,32.4,29.1,29.88,North,-999,-999.0,-999.0,88,0.00,,,0.00,WSDL version 420,2013-01-17 13:16:00,
2013-01-17 08:22:00,32.4,29.1,29.88,NE,45,2.0,2.0,88,0.00,,,0.00,WSDL version 420,2013-01-17 13:22:00,
2013-01-17 08:28:00,32.5,29.1,29.91,NE,45,0.9,2.7,88,0.00,,,0.00,WSDL version 420,2013-01-17 13:28:00,
2013-01-17 08:34:00,32.7,29.4,29.91,NE,45,0.0,4.3,88,0.00,,,0.00,WSDL version 420,2013-01-17 13:34:00,
2013-01-17 08:40:00,32.7,29.5,29.91,NE,45,1.6,4.9,88,0.00,,,0.00,WSDL version 420,2013-01-17 13:40:00,
2013-01-17 08:46:00,32.8,29.3,29.91,NE,45,1.1,4.9,87,0.00,,,0.00,WSDL version 420,2013-01-17 13:46:00,
2013-01-17 08:52:00,33.2,29.7,29.91,NE,45,0.0,4.0,87,0.00,,,0.00,WSDL version 420,2013-01-17 13:52:00,
2013-01-17 08:58:00,33.6,29.8,29.91,NE,45,4.4,7.2,86,0.00,,,0.00,WSDL version 420,2013-01-17 13:58:00,
2013-01-17 09:04:00,34.2,29.4,29.91,NE,45,2.2,7.2,82,0.00,,,0.00,WSDL version 420,2013-01-17 14:04:00,
2013-01-17 09:10:00,34.5,29.9,29.91,NE,45,0.8,4.3,83,0.00,,,0.00,WSDL version 420,2013-01-17 14:10:00,
2013-01-17 09:16:00,34.9,29.5,29.91,SSE,150,0.0,3.4,81,0.00,,,0.00,WSDL version 420,2013-01-17 14:16:00,
2013-01-17 09:22:00,35.2,30.0,29.91,SW,233,1.8,4.0,80,0.00,,,0.00,WSDL version 420,2013-01-17 14:22:00,
2013-01-17 09:28:00,35.8,29.6,29.91,ESE,113,1.5,4.0,78,0.00,,,0.00,WSDL version 420,2013-01-17 14:28:00,
2013-01-17 09:34:00,35.8,29.6,29.91,SE,135,3.1,3.4,78,0.00,,,0.00,WSDL version 420,2013-01-17 14:34:00,
2013-01-17 09:40:00,36.2,30.4,29.91,SSE,158,0.8,4.9,79,0.00,,,0.00,WSDL version 420,2013-01-17 14:40:00,
2013-01-17 09:46:00,36.6,29.6,29.91,SE,143,0.8,4.9,76,0.00,,,0.00,WSDL version 420,2013-01-17 14:46:00,
2013-01-17 09:52:00,36.7,30.0,29.94,SE,135,2.8,4.7,76,0.00,,,0.00,WSDL version 420,2013-01-17 14:52:00,
2013-01-17 09:58:00,36.7,30.2,29.94,SSW,195,0.7,3.8,77,0.00,,,0.00,WSDL version 420,2013-01-17 14:58:00,
2013-01-17 10:04:00,36.5,29.6,29.94,SSE,165,2.3,4.3,76,0.00,,,0.00,WSDL version 420,2013-01-17 15:04:00,
2013-01-17 10:10:00,36.3,29.7,29.94,SE,135,1.5,3.1,77,0.00,,,0.00,WSDL version 420,2013-01-17 15:10:00,
2013-01-17 10:16:00,36.0,29.5,29.94,NE,45,1.3,3.8,78,0.00,,,0.00,WSDL version 420,2013-01-17 15:16:00,
2013-01-17 10:23:00,36.0,29.7,29.94,NW,323,1.3,3.8,77,0.00,,,0.00,WSDL version 420,2013-01-17 15:23:00,
2013-01-17 10:29:00,36.0,29.6,29.94,West,270,1.1,3.6,77,0.00,,,0.00,WSDL version 420,2013-01-17 15:29:00,
2013-01-17 10:35:00,36.3,29.6,29.94,SSE,158,2.8,4.3,76,0.00,,,0.00,WSDL version 420,2013-01-17 15:35:00,
2013-01-17 10:41:00,36.7,30.2,29.94,SE,126,2.9,4.3,77,0.00,,,0.00,WSDL version 420,2013-01-17 15:41:00,
2013-01-17 10:47:00,36.6,29.6,29.94,SSE,150,1.9,3.4,76,0.00,,,0.00,WSDL version 420,2013-01-17 15:47:00,
2013-01-17 10:53:00,36.5,29.9,29.94,SSE,158,0.7,4.3,77,0.00,,,0.00,WSDL version 420,2013-01-17 15:53:00,
2013-01-17 10:59:00,36.6,30.1,29.94,SSE,158,2.2,6.3,77,0.00,,,0.00,WSDL version 420,2013-01-17 15:59:00,
2013-01-17 11:05:00,36.9,30.4,29.94,West,281,2.7,6.3,77,0.00,,,0.00,WSDL version 420,2013-01-17 16:05:00,
2013-01-17 11:11:00,36.5,30.0,29.94,NNE,15,5.1,6.0,76,0.00,,,0.00,WSDL version 420,2013-01-17 16:11:00,
2013-01-17 11:17:00,36.6,29.7,29.94,SE,146,2.1,6.0,75,0.00,,,0.00,WSDL version 420,2013-01-17 16:17:00,
2013-01-17 11:23:00,36.3,29.7,29.91,SSE,158,0.4,4.3,76,0.00,,,0.00,WSDL version 420,2013-01-17 16:23:00,
2013-01-17 11:29:00,37.0,30.3,29.91,SSW,197,1.8,4.3,77,0.00,,,0.00,WSDL version 420,2013-01-17 16:29:00,
2013-01-17 11:35:00,37.3,30.3,29.91,SSE,158,2.9,4.0,76,0.00,,,0.00,WSDL version 420,2013-01-17 16:35:00,
2013-01-17 11:41:00,37.4,30.0,29.91,SSE,150,3.2,4.0,74,0.00,,,0.00,WSDL version 420,2013-01-17 16:41:00,
2013-01-17 11:47:00,37.5,30.5,29.91,SSE,158,2.7,3.8,75,0.00,,,0.00,WSDL version 420,2013-01-17 16:47:00,
2013-01-17 11:53:00,37.4,30.2,29.94,SE,129,2.2,3.6,76,0.00,,,0.00,WSDL version 420,2013-01-17 16:53:00,
2013-01-17 11:59:00,37.5,30.8,29.94,South,180,1.3,3.6,77,0.00,,,0.00,WSDL version 420,2013-01-17 16:59:00,
2013-01-17 12:05:00,37.1,30.0,29.94,WNW,300,0.5,3.4,74,0.00,,,0.00,WSDL version 420,2013-01-17 17:05:00,
2013-01-17 12:11:00,37.2,30.3,29.91,South,188,3.2,3.8,76,0.00,,,0.00,WSDL version 420,2013-01-17 17:11:00,
2013-01-17 12:17:00,37.2,29.9,29.91,NE,34,1.2,3.8,75,0.00,,,0.00,WSDL version 420,2013-01-17 17:17:00,
2013-01-17 12:23:00,38.1,31.1,29.91,South,180,2.2,2.7,76,0.00,,,0.00,WSDL version 420,2013-01-17 17:23:00,
2013-01-17 12:29:00,37.8,30.6,29.91,SSW,195,2.9,4.3,74,0.00,,,0.00,WSDL version 420,2013-01-17 17:29:00,
2013-01-17 12:36:00,37.3,30.0,29.91,South,173,1.6,4.3,74,0.00,,,0.00,WSDL version 420,2013-01-17 17:36:00,
2013-01-17 12:42:00,37.0,29.9,29.91,SSW,195,1.4,4.0,75,0.00,,,0.00,WSDL version 420,2013-01-17 17:42:00,
2013-01-17 12:48:00,37.3,29.8,29.91,SSW,210,1.5,2.9,74,0.00,,,0.00,WSDL version 420,2013-01-17 17:48:00,
2013-01-17 12:54:00,37.9,30.5,29.91,East,98,1.1,3.6,74,0.00,,,0.00,WSDL version 420,2013-01-17 17:54:00,
2013-01-17 13:00:00,38.6,30.9,29.91,ESE,105,2.9,3.4,73,0.00,,,0.00,WSDL version 420,2013-01-17 18:00:00,
2013-01-17 13:06:00,39.3,30.5,29.91,East,90,0.0,3.1,70,0.00,,,0.00,WSDL version 420,2013-01-17 18:06:00,
2013-01-17 13:12:00,39.6,30.0,29.91,NNW,338,3.8,3.8,68,0.00,,,0.00,WSDL version 420,2013-01-17 18:12:00,
2013-01-17 13:18:00,39.5,30.7,29.91,SW,214,1.7,3.8,69,0.00,,,0.00,WSDL version 420,2013-01-17 18:18:00,
2013-01-17 13:24:00,39.7,30.0,29.91,East,98,0.7,3.4,69,0.00,,,0.00,WSDL version 420,2013-01-17 18:24:00,
2013-01-17 13:30:00,39.4,29.9,29.91,ENE,60,0.5,4.0,70,0.00,,,0.00,WSDL version 420,2013-01-17 18:30:00,
2013-01-17 13:36:00,39.0,30.1,29.91,South,174,2.3,4.3,71,0.00,,,0.00,WSDL version 420,2013-01-17 18:36:00,
2013-01-17 13:42:00,38.9,30.2,29.91,SSE,150,2.3,4.3,72,0.00,,,0.00,WSDL version 420,2013-01-17 18:42:00,
2013-01-17 13:48:00,39.2,29.1,29.91,SSE,158,3.0,3.8,66,0.00,,,0.00,WSDL version 420,2013-01-17 18:48:00,
2013-01-17 13:54:00,39.1,29.4,29.94,ESE,113,2.8,4.3,68,0.00,,,0.00,WSDL version 420,2013-01-17 18:54:00,
2013-01-17 14:00:00,38.8,28.6,29.94,South,180,1.3,4.0,67,0.00,,,0.00,WSDL version 420,2013-01-17 19:00:00,
2013-01-17 14:06:00,38.7,29.4,29.94,SW,225,1.9,5.4,70,0.00,,,0.00,WSDL version 420,2013-01-17 19:06:00,
2013-01-17 14:12:00,38.4,29.1,29.91,East,98,1.0,3.4,70,-99.99,,,-99.99,WSDL version 420,2013-01-17 19:12:00,
2013-01-17 14:18:00,38.4,29.0,29.91,WSW,255,0.0,3.1,69,0.00,,,0.00,WSDL version 420,2013-01-17 19:18:00,
2013-01-17 14:24:00,38.4,29.2,29.94,SSE,165,0.0,2.7,70,0.00,,,0.00,WSDL version 420,2013-01-17 19:24:00,
2013-01-17 14:31:00,38.2,29.5,29.94,SE,135,1.6,2.5,70,0.00,,,0.00,WSDL version 420,2013-01-17 19:31:00,
2013-01-17 14:37:00,38.0,29.3,29.94,West,270,0.0,2.5,70,0.04,,,0.04,WSDL version 420,2013-01-17 19:37:00,
2013-01-17 14:43:00,37.9,30.1,29.91,SSW,210,1.8,3.6,73,0.04,,,0.04,WSDL version 420,2013-01-17 19:43:00,
2013-01-17 14:49:00,37.8,29.1,29.91,South,180,0.0,2.7,72,0.04,,,0.04,WSDL version 420,2013-01-17 19:49:00,
2013-01-17 14:55:00,37.6,29.3,29.94,South,180,2.6,2.9,72,0.04,,,0.04,WSDL version 420,2013-01-17 19:55:00,
2013-01-17 15:01:00,37.6,29.7,29.94,NW,323,0.6,2.9,73,0.04,,,0.04,WSDL version 420,2013-01-17 20:01:00,
2013-01-17 15:07:00,37.5,29.1,29.94,WSW,248,0.0,2.7,72,0.04,,,0.04,WSDL version 420,2013-01-17 20:07:00,
2013-01-17 15:13:00,37.4,29.7,29.94,ESE,120,0.0,0.0,74,0.04,,,0.04,WSDL version 420,2013-01-17 20:13:00,
2013-01-17 15:19:00,37.2,30.1,29.94,East,90,0.0,1.3,76,0.08,,,0.08,WSDL version 420,2013-01-17 20:19:00,
2013-01-17 15:25:00,37.0,30.3,29.94,SE,141,1.5,3.4,76,0.08,,,0.08,WSDL version 420,2013-01-17 20:25:00,
2013-01-17 15:31:00,37.0,29.6,29.94,South,180,0.0,3.4,75,0.08,,,0.08,WSDL version 420,2013-01-17 20:31:00,
2013-01-17 15:37:00,36.9,30.1,29.94,SSW,195,0.0,0.0,77,0.04,,,0.08,WSDL version 420,2013-01-17 20:37:00,
2013-01-17 15:43:00,36.9,30.0,29.94,SSW,203,0.0,0.0,75,0.04,,,0.08,WSDL version 420,2013-01-17 20:43:00,
2013-01-17 15:49:00,36.6,30.0,29.94,SW,225,0.0,0.0,77,-99.99,,,-99.99,WSDL version 420,2013-01-17 20:49:00,
2013-01-17 15:55:00,36.5,30.0,29.94,ESE,113,0.0,0.0,77,0.04,,,0.08,WSDL version 420,2013-01-17 20:55:00,
2013-01-17 16:01:00,36.1,30.0,29.94,NE,45,0.0,0.0,78,0.04,,,0.08,WSDL version 420,2013-01-17 21:01:00,
2013-01-17 16:07:00,35.9,30.0,29.94,NE,34,0.0,0.0,79,0.04,,,0.08,WSDL version 420,2013-01-17 21:07:00,
2013-01-17 16:13:00,35.8,29.9,29.94,NW,315,0.0,0.0,79,0.04,,,0.08,WSDL version 420,2013-01-17 21:13:00,
2013-01-17 16:19:00,35.7,29.8,29.94,NW,315,0.0,0.0,79,0.00,,,0.08,WSDL version 420,2013-01-17 21:19:00,
2013-01-17 16:25:00,35.4,30.0,29.94,NW,315,0.0,0.0,81,0.00,,,0.08,WSDL version 420,2013-01-17 21:25:00,
2013-01-17 16:31:00,35.2,30.0,29.94,NW,315,0.0,0.0,81,0.00,,,0.08,WSDL version 420,2013-01-17 21:31:00,
2013-01-17 16:38:00,35.0,30.1,29.94,North,360,0.0,0.0,82,0.00,,,0.08,WSDL version 420,2013-01-17 21:38:00,
2013-01-17 16:44:00,34.9,30.0,29.94,North,360,0.0,0.0,82,0.05,,,0.13,WSDL version 420,2013-01-17 21:44:00,
2013-01-17 16:50:00,34.9,30.3,29.94,North,360,0.0,0.0,83,0.05,,,0.13,WSDL version 420,2013-01-17 21:50:00,
2013-01-17 16:56:00,34.8,30.2,29.94,North,360,0.0,0.0,83,0.05,,,0.13,WSDL version 420,2013-01-17 21:56:00,
2013-01-17 17:02:00,34.8,30.2,29.94,North,360,0.0,0.0,83,0.05,,,0.13,WSDL version 420,2013-01-17 22:02:00,
2013-01-17 17:08:00,34.6,30.2,29.97,North,360,0.0,0.0,84,0.05,,,0.13,WSDL version 420,2013-01-17 22:08:00,
2013-01-17 17:14:00,34.9,30.5,29.97,East,83,2.5,2.5,83,0.05,,,0.13,WSDL version 420,2013-01-17 22:14:00,
2013-01-17 17:20:00,35.1,29.5,29.97,NE,45,0.7,6.5,78,0.05,,,0.13,WSDL version 420,2013-01-17 22:20:00,
2013-01-17 17:26:00,35.1,29.2,29.97,NE,53,2.7,4.0,79,0.05,,,0.13,WSDL version 420,2013-01-17 22:26:00,
2013-01-17 17:32:00,35.0,29.1,29.97,NE,56,1.0,5.8,79,0.05,,,0.13,WSDL version 420,2013-01-17 22:32:00,
2013-01-17 17:38:00,34.8,28.9,29.97,East,90,0.0,5.8,79,0.05,,,0.13,WSDL version 420,2013-01-17 22:38:00,
2013-01-17 17:44:00,34.7,28.6,29.97,ESE,113,1.0,2.9,78,0.00,,,0.13,WSDL version 420,2013-01-17 22:44:00,
2013-01-17 17:50:00,34.7,28.1,29.97,NNE,23,0.0,3.6,77,0.00,,,0.13,WSDL version 420,2013-01-17 22:50:00,
2013-01-17 17:56:00,34.5,28.2,30.00,South,169,1.5,3.6,78,0.00,,,0.13,WSDL version 420,2013-01-17 22:56:00,
2013-01-17 18:02:00,34.5,27.7,30.00,NNE,23,0.0,2.9,76,0.00,,,0.13,WSDL version 420,2013-01-17 23:02:00,
2013-01-17 18:08:00,34.3,27.6,30.00,NNE,23,0.0,2.9,76,0.00,,,0.13,WSDL version 420,2013-01-17 23:08:00,
2013-01-17 18:14:00,34.3,27.4,30.00,NNE,23,0.0,0.0,75,0.00,,,0.13,WSDL version 420,2013-01-17 23:14:00,
2013-01-17 18:20:00,34.2,26.7,30.00,North,-999,-999.0,-999.0,74,0.00,,,0.13,WSDL version 420,2013-01-17 23:20:00,
2013-01-17 18:26:00,34.0,26.5,30.00,North,-999,-999.0,-999.0,74,0.00,,,0.13,WSDL version 420,2013-01-17 23:26:00,
2013-01-17 18:32:00,33.9,26.4,30.00,North,-999,-999.0,-999.0,74,0.00,,,0.13,WSDL version 420,2013-01-17 23:32:00,
2013-01-17 18:38:00,33.7,26.3,30.00,North,-999,-999.0,-999.0,74,0.00,,,0.13,WSDL version 420,2013-01-17 23:38:00,
2013-01-17 18:44:00,33.5,25.6,30.00,North,-999,-999.0,-999.0,73,0.00,,,0.13,WSDL version 420,2013-01-17 23:44:00,
2013-01-17 18:50:00,33.4,25.7,30.00,North,-999,-999.0,-999.0,73,0.00,,,0.13,WSDL version 420,2013-01-17 23:50:00,
2013-01-17 18:56:00,33.3,25.6,30.00,North,-999,-999.0,-999.0,73,0.00,,,0.13,WSDL version 420,2013-01-17 23:56:00,
2013-01-17 19:03:00,33.2,25.7,30.00,North,-999,-999.0,-999.0,73,0.00,,,0.13,WSDL version 420,2013-01-18 00:03:00,
2013-01-17 19:09:00,33.1,25.0,30.00,North,-999,-999.0,-999.0,72,0.00,,,0.13,WSDL version 420,2013-01-18 00:09:00,
2013-01-17 19:15:00,32.8,23.6,30.00,North,-999,-999.0,-999.0,69,0.00,,,0.13,WSDL version 420,2013-01-18 00:15:00,
2013-01-17 19:21:00,32.7,23.7,30.00,North,-999,-999.0,-999.0,68,0.00,,,0.13,WSDL version 420,2013-01-18 00:21:00,
2013-01-17 19:27:00,32.7,23.0,30.00,North,-999,-999.0,-999.0,67,0.00,,,0.13,WSDL version 420,2013-01-18 00:27:00,
2013-01-17 19:33:00,32.7,23.4,30.00,North,-999,-999.0,-999.0,69,0.00,,,0.13,WSDL version 420,2013-01-18 00:33:00,
2013-01-17 19:39:00,32.5,23.2,30.00,North,-999,-999.0,-999.0,68,0.00,,,0.13,WSDL version 420,2013-01-18 00:39:00,
2013-01-17 19:45:00,32.5,23.0,30.00,North,-999,-999.0,-999.0,67,0.00,,,0.13,WSDL version 420,2013-01-18 00:45:00,
2013-01-17 19:51:00,32.5,23.0,30.00,North,-999,-999.0,-999.0,67,0.00,,,0.13,WSDL version 420,2013-01-18 00:51:00,
2013-01-17 19:57:00,32.4,22.5,30.00,North,-999,-999.0,-999.0,66,0.00,,,0.13,WSDL version 420,2013-01-18 00:57:00,
2013-01-17 20:03:00,32.2,22.0,30.00,North,-999,-999.0,-999.0,66,0.00,,,0.13,WSDL version 420,2013-01-18 01:03:00,
2013-01-17 20:09:00,32.2,22.2,30.00,North,-999,-999.0,-999.0,66,0.00,,,0.13,WSDL version 420,2013-01-18 01:09:00,
2013-01-17 20:15:00,31.9,21.4,30.00,North,-999,-999.0,-999.0,61,0.00,,,0.13,WSDL version 420,2013-01-18 01:15:00,
2013-01-17 20:21:00,31.8,21.9,30.00,North,-999,-999.0,-999.0,65,0.00,,,0.13,WSDL version 420,2013-01-18 01:21:00,
2013-01-17 20:27:00,31.8,22.4,30.00,NE,38,0.4,1.6,65,0.00,,,0.13,WSDL version 420,2013-01-18 01:27:00,
2013-01-17 20:33:00,31.5,21.4,30.00,East,84,0.7,2.9,61,0.00,,,0.13,WSDL version 420,2013-01-18 01:33:00,
2013-01-17 20:39:00,31.5,21.6,30.00,ENE,68,2.0,2.7,63,0.00,,,0.13,WSDL version 420,2013-01-18 01:39:00,
2013-01-17 20:45:00,31.5,21.5,30.00,ESE,107,0.0,2.7,62,0.00,,,0.13,WSDL version 420,2013-01-18 01:45:00,
2013-01-17 20:51:00,31.3,21.1,30.00,WNW,285,0.0,2.5,62,0.00,,,0.13,WSDL version 420,2013-01-18 01:51:00,
2013-01-17 20:57:00,31.3,21.4,30.00,ENE,75,2.8,3.4,63,0.00,,,0.13,WSDL version 420,2013-01-18 01:57:00,
2013-01-17 21:03:00,31.2,21.1,30.00,NE,45,1.3,4.0,62,0.00,,,0.13,WSDL version 420,2013-01-18 02:03:00,
2013-01-17 21:09:00,30.8,20.5,30.00,NNE,23,0.0,2.2,62,0.00,,,0.13,WSDL version 420,2013-01-18 02:09:00,
2013-01-17 21:16:00,30.8,20.8,30.00,East,90,2.7,4.0,62,0.00,,,0.13,WSDL version 420,2013-01-18 02:16:00,
2013-01-17 21:22:00,30.6,20.6,30.00,ENE,75,4.0,6.3,62,0.00,,,0.13,WSDL version 420,2013-01-18 02:22:00,
2013-01-17 21:28:00,30.3,20.3,30.00,NNE,23,3.0,6.3,63,0.00,,,0.13,WSDL version 420,2013-01-18 02:28:00,
2013-01-17 21:34:00,30.0,19.8,30.00,NE,45,1.1,4.7,62,0.00,,,0.13,WSDL version 420,2013-01-18 02:34:00,
2013-01-17 21:40:00,-999.0,-99.9,30.00,ENE,60,3.5,4.7,-999,0.00,,,0.13,WSDL version 420,2013-01-18 02:40:00,
2013-01-17 21:46:00,29.7,19.9,30.00,NE,45,2.5,6.5,62,0.00,,,0.13,WSDL version 420,2013-01-18 02:46:00,
2013-01-17 21:52:00,-999.0,-99.9,30.00,ENE,75,5.6,6.7,-999,0.00,,,0.13,WSDL version 420,2013-01-18 02:52:00,
2013-01-17 21:58:00,29.1,19.1,30.00,NE,39,5.8,8.1,61,0.00,,,0.13,WSDL version 420,2013-01-18 02:58:00,
2013-01-17 22:04:00,29.0,18.8,30.00,NE,45,3.9,8.1,63,0.00,,,0.13,WSDL version 420,2013-01-18 03:04:00,
2013-01-17 22:10:00,28.8,18.2,29.97,NE,53,5.0,6.5,61,0.00,,,0.13,WSDL version 420,2013-01-18 03:10:00,
2013-01-17 22:16:00,28.8,17.8,29.97,NNE,30,0.0,6.5,58,0.00,,,0.13,WSDL version 420,2013-01-18 03:16:00,
2013-01-17 22:22:00,28.9,17.7,29.97,NE,53,2.2,3.4,58,0.00,,,0.13,WSDL version 420,2013-01-18 03:22:00,
2013-01-17 22:28:00,28.9,17.6,29.97,WNW,300,0.0,5.8,58,0.00,,,0.13,WSDL version 420,2013-01-18 03:28:00,
2013-01-17 22:34:00,28.7,17.2,29.97,ENE,75,3.1,3.1,58,0.00,,,0.13,WSDL version 420,2013-01-18 03:34:00,
2013-01-17 22:40:00,28.6,16.8,29.97,NE,45,2.7,4.0,57,0.00,,,0.13,WSDL version 420,2013-01-18 03:40:00,
2013-01-17 22:46:00,28.5,16.6,29.97,NNW,345,2.4,4.9,57,0.00,,,0.13,WSDL version 420,2013-01-18 03:46:00,
2013-01-17 22:52:00,28.2,16.7,29.94,ENE,60,2.8,6.0,58,0.00,,,0.13,WSDL version 420,2013-01-18 03:52:00,
2013-01-17 22:59:00,28.0,16.4,29.94,ENE,68,2.5,6.0,57,0.00,,,0.13,WSDL version 420,2013-01-18 03:59:00,
2013-01-17 23:05:00,28.0,15.9,29.94,NE,45,3.5,3.6,56,0.00,,,0.13,WSDL version 420,2013-01-18 04:05:00,
2013-01-17 23:11:00,27.9,15.8,29.94,East,90,1.6,3.6,56,0.00,,,0.13,WSDL version 420,2013-01-18 04:11:00,
2013-01-17 23:17:00,27.7,15.5,29.94,East,90,1.2,2.5,56,0.00,,,0.13,WSDL version 420,2013-01-18 04:17:00,
2013-01-17 23:23:00,27.4,14.8,29.97,SE,128,2.3,2.7,54,0.00,,,0.13,WSDL version 420,2013-01-18 04:23:00,
2013-01-17 23:29:00,27.0,14.4,29.97,SSE,158,1.3,5.4,54,0.00,,,0.13,WSDL version 420,2013-01-18 04:29:00,
2013-01-17 23:35:00,27.0,13.7,29.97,North,349,0.3,4.3,53,0.00,,,0.13,WSDL version 420,2013-01-18 04:35:00,
2013-01-17 23:41:00,26.9,13.8,29.97,NNE,28,2.1,3.8,54,0.00,,,0.13,WSDL version 420,2013-01-18 04:41:00,
2013-01-17 23:47:00,26.9,13.8,29.97,ENE,60,3.1,3.1,53,0.00,,,0.13,WSDL version 420,2013-01-18 04:47:00,
2013-01-17 23:53:00,26.8,13.8,29.97,NNW,330,3.4,4.0,53,0.00,,,0.13,WSDL version 420,2013-01-18 04:53:00,
2013-01-17 23:59:00,27.0,13.9,29.97,NE,51,2.0,3.6,53,0.00,,,0.13,WSDL version 420,2013-01-18 04:59:00,